QPF
0.01 0.01 0.02 0.03 0.03 0.02 0.03 0.02 0.03 0.02 0.03 0.03 0.05 0.06 0.06 0.06 0.05 0.05 0.04 0.02 0.03 0.04 0.03 0.03 0.03 0.02 0.03 0.03 0.03 0.03 0.04 0.04 0.04 0.02 0.02 0.02 0.02 0.02 0.02 0.01 0.01 0.02 0.03
0.01 0.01 0.02 0.02 0.02 0.02 0.02 0.02 0.03 0.03 0.04 0.04 0.06 0.07 0.08 0.07 0.05 0.04 0.04 0.02 0.02 0.03 0.03 0.04 0.03 0.03 0.03 0.03 0.03 0.04 0.04 0.04 0.04 0.04 0.02 0.02 0.02 0.02 0.03 0.02 0.01 0.01 0.02
0.01 0.01 0.02 0.03 0.02 0.02 0.03 0.03 0.03 0.04 0.05 0.05 0.05 0.06 0.05 0.05 0.06 0.05 0.05 0.03 0.02 0.02 0.03 0.03 0.03 0.04 0.04 0.03 0.03 0.04 0.04 0.04 0.04 0.04 0.03 0.02 0.02 0.02 0.03 0.03 0.03 0.03 0.03
0.02 0.02 0.03 0.03 0.02 0.02 0.02 0.02 0.03 0.03 0.05 0.05 0.04 0.04 0.04 0.04 0.05 0.06 0.05 0.03 0.03 0.02 0.03 0.03 0.03 0.03 0.03 0.03 0.03 0.04 0.04 0.04 0.05 0.05 0.04 0.03 0.02 0.02 0.03 0.05 0.06 0.05 0.05
0.03 0.03 0.03 0.02 0.01 0.02 0.02 0.01 0.03 0.03 0.04 0.05 0.04 0.04 0.04 0.04 0.04 0.05 0.04 0.02 0.03 0.03 0.03 0.04 0.03 0.04 0.05 0.05 0.04 0.03 0.04 0.04 0.05 0.05 0.05 0.04 0.03 0.04 0.05 0.05 0.06 0.07 0.05
0.02 0.04 0.04 0.01 0.01 0.02 0.02 0.02 0.03 0.03 0.03 0.05 0.04 0.04 0.04 0.03 0.04 0.04 0.02 0.02 0.03 0.03 0.02 0.02 0.02 0.02 0.03 0.05 0.04 0.04 0.04 0.04 0.04 0.04 0.05 0.04 0.04 0.03 0.03 0.04 0.05 0.06 0.06
0.03 0.03 0.02 0.01 0.02 0.03 0.03 0.03 0.03 0.03 0.03 0.04 0.02 0.02 0.02 0.03 0.03 0.02 0.02 0.02 0.03 0.02 0.01 0.01 0.01 0.01 0.01 0.01 0.02 0.03 0.03 0.02 0.03 0.03 0.04 0.03 0.04 0.03 0.04 0.05 0.05 0.04 0.04
0.02 0.02 0.01 0.01 0.01 0.02 0.03 0.03 0.03 0.03 0.02 0.03 0.02 0.02 0.01 0.01 0.03 0.02 0.02 0.02 0.02 0.02 0.02 0.02 0.02 0.01 0.01 0.01 0.02 0.01 0.02 0.02 0.03 0.03 0.03 0.03 0.04 0.04 0.05 0.05 0.04 0.03 0.03
0.02 0.01 0.00 0.01 0.01 0.02 0.03 0.03 0.03 0.03 0.03 0.02 0.02 0.02 0.01 0.01 0.01 0.01 0.01 0.02 0.02 0.02 0.02 0.01 0.01 0.01 0.02 0.02 0.02 0.02 0.02 0.02 0.02 0.03 0.03 0.04 0.05 0.05 0.04 0.04 0.03 0.03 0.02
0.01 0.01 0.01 0.01 0.02 0.03 0.04 0.02 0.02 0.03 0.04 0.03 0.01 0.01 0.01 0.01 0.01 0.01 0.01 0.02 0.02 0.02 0.01 0.01 0.02 0.02 0.03 0.02 0.02 0.02 0.02 0.02 0.02 0.02 0.02 0.03 0.03 0.03 0.03 0.02 0.02 0.02 0.02
0.01 0.01 0.02 0.02 0.02 0.04 0.05 0.03 0.02 0.03 0.04 0.03 0.02 0.02 0.02 0.01 0.01 0.01 0.01 0.01 0.02 0.02 0.02 0.02 0.01 0.01 0.01 0.01 0.01 0.02 0.02 0.02 0.02 0.03 0.03 0.03 0.03 0.03 0.03 0.02 0.02 0.02 0.02
0.01 0.01 0.01 0.01 0.01 0.02 0.03 0.03 0.03 0.02 0.03 0.03 0.03 0.04 0.03 0.01 0.01 0.00 0.01 0.01 0.01 0.01 0.02 0.01 0.01 0.01 0.01 0.01 0.01 0.02 0.02 0.03 0.03 0.03 0.03 0.02 0.02 0.02 0.01 0.01 0.01 0.01 0.01
0.00 0.01 0.01 0.01 0.01 0.01 0.01 0.02 0.02 0.02 0.02 0.01 0.02 0.02 0.03 0.04 0.04 0.03 0.01 0.01 0.01 0.01 0.01 0.01 0.01 0.02 0.02 0.02 0.02 0.02 0.02 0.02 0.03 0.02 0.02 0.02 0.02 0.02 0.02 0.02 0.02 0.02 0.02
0.00 0.01 0.00 0.00 0.01 0.01 0.01 0.01 0.02 0.02 0.01 0.01 0.01 0.01 0.01 0.02 0.03 0.05 0.04 0.03 0.02 0.01 0.01 0.01 0.01 0.02 0.02 0.02 0.02 0.02 0.01 0.01 0.02 0.03 0.02 0.02 0.02 0.03 0.03 0.03 0.03 0.03 0.03
0.00 0.01 0.00 0.00 0.01 0.01 0.01 0.01 0.01 0.01 0.01 0.01 0.01 0.01 0.01 0.01 0.02 0.03 0.03 0.03 0.03 0.02 0.02 0.02 0.01 0.01 0.01 0.02 0.01 0.01 0.01 0.01 0.02 0.02 0.03 0.04 0.04 0.05 0.04 0.04 0.04 0.03 0.03
0.01 0.01 0.01 0.01 0.02 0.02 0.02 0.02 0.01 0.01 0.01 0.01 0.01 0.01 0.00 0.01 0.01 0.03 0.03 0.04 0.04 0.03 0.03 0.02 0.02 0.02 0.02 0.02 0.02 0.01 0.01 0.01 0.01 0.02 0.02 0.03 0.03 0.04 0.05 0.05 0.04 0.04 0.03
0.03 0.02 0.02 0.02 0.02 0.02 0.02 0.02 0.02 0.02 0.01 0.01 0.01 0.01 0.01 0.01 0.01 0.02 0.03 0.04 0.04 0.05 0.03 0.03 0.03 0.02 0.02 0.02 0.02 0.02 0.02 0.02 0.02 0.02 0.02 0.02 0.03 0.03 0.04 0.04 0.04 0.03 0.03
0.04 0.04 0.03 0.04 0.04 0.02 0.02 0.02 0.03 0.03 0.02 0.01 0.01 0.01 0.01 0.01 0.01 0.01 0.01 0.02 0.03 0.05 0.05 0.03 0.03 0.02 0.02 0.02 0.02 0.03 0.03 0.02 0.02 0.02 0.02 0.03 0.03 0.03 0.03 0.03 0.03 0.03 0.02
0.04 0.04 0.04 0.04 0.04 0.04 0.03 0.02 0.01 0.02 0.02 0.02 0.01 0.00 0.01 0.01 0.01 0.01 0.01 0.01 0.01 0.02 0.04 0.04 0.04 0.04 0.03 0.03 0.03 0.03 0.04 0.03 0.03 0.02 0.02 0.02 0.03 0.03 0.02 0.03 0.03 0.03 0.02
0.03 0.03 0.03 0.03 0.03 0.03 0.03 0.03 0.02 0.02 0.02 0.01 0.01 0.01 0.01 0.00 0.00 0.00 0.00 0.00 0.01 0.01 0.02 0.03 0.03 0.04 0.04 0.04 0.04 0.04 0.05 0.05 0.04 0.02 0.02 0.02 0.02 0.03 0.02 0.02 0.03 0.03 0.03
0.02 0.04 0.03 0.02 0.01 0.02 0.03 0.03 0.03 0.02 0.02 0.02 0.02 0.02 0.01 0.01 0.01 0.00 0.00 0.00 0.01 0.01 0.01 0.02 0.02 0.03 0.03 0.04 0.04 0.04 0.04 0.04 0.04 0.03 0.03 0.03 0.02 0.03 0.02 0.02 0.01 0.02 0.03
0.01 0.03 0.04 0.03 0.02 0.02 0.02 0.02 0.02 0.02 0.02 0.02 0.02 0.03 0.02 0.01 0.01 0.01 0.01 0.00 0.01 0.01 0.01 0.02 0.02 0.02 0.03 0.03 0.03 0.03 0.03 0.03 0.03 0.03 0.03 0.03 0.03 0.03 0.03 0.03 0.02 0.02 0.02
0.02 0.02 0.02 0.03 0.03 0.03 0.03 0.02 0.02 0.01 0.02 0.02 0.02 0.02 0.02 0.01 0.01 0.01 0.01 0.01 0.01 0.01 0.01 0.02 0.02 0.02 0.03 0.03 0.03 0.04 0.03 0.03 0.02 0.02 0.02 0.03 0.03 0.03 0.04 0.04 0.04 0.04 0.04
0.02 0.01 0.02 0.03 0.02 0.02 0.02 0.02 0.01 0.01 0.01 0.02 0.02 0.02 0.02 0.02 0.02 0.02 0.01 0.01 0.02 0.02 0.02 0.02 0.02 0.02 0.02 0.03 0.03 0.03 0.03 0.03 0.02 0.02 0.02 0.02 0.03 0.03 0.04 0.04 0.04 0.05 0.05
0.01 0.02 0.02 0.02 0.02 0.02 0.01 0.01 0.01 0.01 0.01 0.02 0.02 0.02 0.02 0.02 0.03 0.03 0.02 0.02 0.02 0.02 0.02 0.02 0.02 0.03 0.03 0.03 0.03 0.03 0.03 0.03 0.02 0.02 0.02 0.02 0.03 0.03 0.04 0.04 0.05 0.05 0.05
0.01 0.01 0.01 0.01 0.01 0.01 0.02 0.02 0.02 0.02 0.02 0.02 0.03 0.03 0.03 0.03 0.03 0.03 0.03 0.03 0.02 0.02 0.03 0.03 0.03 0.03 0.03 0.03 0.03 0.03 0.03 0.02 0.02 0.03 0.02 0.02 0.03 0.04 0.04 0.05 0.05 0.06 0.05
MSLP
1019.40 1019.60 1019.82 1020.04 1020.24 1020.41 1020.54 1020.66 1020.77 1020.90 1021.06 1021.27 1021.53 1021.82 1022.13 1022.44 1022.74 1023.02 1023.26 1023.48 1023.68 1023.86 1024.02 1024.18 1024.34 1024.51 1024.68 1024.86 1025.07 1025.30 1025.57 1025.89 1026.24 1026.62 1027.02 1027.41 1027.78 1028.10 1028.36 1028.56 1028.69 1028.76 1028.80
1019.55 1019.78 1020.03 1020.27 1020.49 1020.69 1020.85 1021.00 1021.14 1021.31 1021.50 1021.74 1022.02 1022.33 1022.66 1023.00 1023.33 1023.65 1023.94 1024.20 1024.44 1024.65 1024.82 1024.97 1025.11 1025.22 1025.32 1025.43 1025.56 1025.72 1025.93 1026.20 1026.52 1026.89 1027.28 1027.67 1028.03 1028.35 1028.59 1028.77 1028.87 1028.92 1028.94
1019.66 1019.96 1020.26 1020.54 1020.80 1021.03 1021.23 1021.42 1021.60 1021.79 1022.01 1022.26 1022.54 1022.85 1023.19 1023.53 1023.87 1024.20 1024.52 1024.82 1025.09 1025.32 1025.53 1025.69 1025.82 1025.91 1025.99 1026.06 1026.14 1026.26 1026.43 1026.66 1026.96 1027.30 1027.67 1028.05 1028.39 1028.68 1028.90 1029.05 1029.12 1029.13 1029.10
1019.76 1020.14 1020.50 1020.85 1021.16 1021.44 1021.69 1021.92 1022.13 1022.36 1022.59 1022.84 1023.12 1023.41 1023.72 1024.03 1024.35 1024.68 1024.99 1025.30 1025.59 1025.85 1026.09 1026.28 1026.43 1026.54 1026.62 1026.69 1026.76 1026.86 1027.01 1027.22 1027.49 1027.81 1028.15 1028.49 1028.81 1029.07 1029.25 1029.36 1029.38 1029.35 1029.28
1019.86 1020.32 1020.77 1021.18 1021.55 1021.89 1022.19 1022.46 1022.72 1022.97 1023.22 1023.47 1023.73 1023.99 1024.25 1024.52 1024.79 1025.08 1025.37 1025.66 1025.96 1026.24 1026.50 1026.73 1026.91 1027.06 1027.17 1027.27 1027.36 1027.47 1027.62 1027.81 1028.05 1028.34 1028.65 1028.95 1029.22 1029.44 1029.58 1029.64 1029.63 1029.56 1029.45
1019.96 1020.50 1021.02 1021.50 1021.93 1022.32 1022.68 1023.00 1023.30 1023.58 1023.85 1024.09 1024.33 1024.55 1024.77 1024.98 1025.19 1025.42 1025.67 1025.93 1026.22 1026.50 1026.79 1027.05 1027.28 1027.48 1027.64 1027.78 1027.90 1028.03 1028.18 1028.37 1028.59 1028.83 1029.09 1029.35 1029.57 1029.73 1029.83 1029.86 1029.81 1029.72 1029.59
1020.04 1020.65 1021.22 1021.75 1022.24 1022.68 1023.08 1023.45 1023.80 1024.11 1024.40 1024.65 1024.88 1025.07 1025.24 1025.40 1025.56 1025.73 1025.92 1026.15 1026.41 1026.69 1026.99 1027.28 1027.56 1027.80 1028.02 1028.20 1028.36 1028.51 1028.67 1028.84 1029.03 1029.23 1029.44 1029.63 1029.80 1029.92 1029.98 1029.98 1029.92 1029.82 1029.69
1020.07 1020.72 1021.33 1021.90 1022.41 1022.89 1023.34 1023.75 1024.13 1024.49 1024.80 1025.07 1025.30 1025.48 1025.63 1025.75 1025.86 1025.99 1026.14 1026.34 1026.57 1026.85 1027.15 1027.46 1027.76 1028.05 1028.30 1028.52 1028.71 1028.88 1029.03 1029.18 1029.34 1029.49 1029.65 1029.79 1029.90 1029.98 1030.01 1030.00 1029.94 1029.85 1029.73
1020.02 1020.69 1021.31 1021.89 1022.43 1022.93 1023.40 1023.85 1024.26 1024.65 1025.00 1025.30 1025.55 1025.74 1025.89 1026.00 1026.10 1026.20 1026.33 1026.50 1026.72 1026.98 1027.28 1027.60 1027.92 1028.22 1028.50 1028.73 1028.94 1029.11 1029.25 1029.38 1029.50 1029.62 1029.72 1029.81 1029.88 1029.92 1029.93 1029.92 1029.87 1029.80 1029.72
1019.87 1020.53 1021.15 1021.73 1022.27 1022.78 1023.26 1023.73 1024.18 1024.60 1024.98 1025.32 1025.59 1025.82 1025.99 1026.12 1026.23 1026.34 1026.47 1026.64 1026.85 1027.10 1027.39 1027.71 1028.02 1028.33 1028.60 1028.84 1029.04 1029.20 1029.33 1029.44 1029.53 1029.60 1029.66 1029.71 1029.75 1029.77 1029.77 1029.76 1029.73 1029.69 1029.65
1019.61 1020.25 1020.85 1021.42 1021.95 1022.46 1022.95 1023.43 1023.90 1024.34 1024.76 1025.13 1025.45 1025.71 1025.93 1026.10 1026.25 1026.39 1026.55 1026.73 1026.94 1027.19 1027.47 1027.77 1028.06 1028.35 1028.61 1028.83 1029.01 1029.16 1029.27 1029.35 1029.41 1029.46 1029.50 1029.52 1029.54 1029.54 1029.54 1029.54 1029.53 1029.51 1029.50
1019.24 1019.86 1020.44 1020.99 1021.52 1022.02 1022.51 1023.00 1023.47 1023.93 1024.37 1024.77 1025.13 1025.45 1025.72 1025.95 1026.15 1026.34 1026.53 1026.74 1026.97 1027.22 1027.48 1027.76 1028.03 1028.28 1028.51 1028.70 1028.86 1028.98 1029.07 1029.14 1029.19 1029.22 1029.24 1029.25 1029.26 1029.26 1029.26 1029.26 1029.26 1029.26 1029.26
1018.78 1019.38 1019.95 1020.49 1021.01 1021.52 1022.01 1022.49 1022.97 1023.43 1023.88 1024.31 1024.70 1025.06 1025.38 1025.66 1025.93 1026.17 1026.41 1026.65 1026.90 1027.15 1027.40 1027.65 1027.89 1028.10 1028.29 1028.45 1028.58 1028.69 1028.77 1028.82 1028.87 1028.90 1028.92 1028.93 1028.94 1028.94 1028.94 1028.93 1028.93 1028.93 1028.94
1018.25 1018.84 1019.41 1019.96 1020.48 1020.99 1021.48 1021.96 1022.43 1022.89 1023.35 1023.78 1024.19 1024.58 1024.94 1025.28 1025.60 1025.89 1026.18 1026.45 1026.72 1026.97 1027.21 1027.44 1027.64 1027.82 1027.98 1028.10 1028.21 1028.30 1028.37 1028.43 1028.48 1028.52 1028.55 1028.57 1028.58 1028.59 1028.58 1028.56 1028.54 1028.53 1028.51
1017.66 1018.26 1018.84 1019.40 1019.94 1020.45 1020.95 1021.43 1021.89 1022.35 1022.79 1023.22 1023.64 1024.05 1024.43 1024.81 1025.17 1025.51 1025.83 1026.13 1026.42 1026.68 1026.91 1027.12 1027.30 1027.45 1027.57 1027.68 1027.76 1027.84 1027.91 1027.98 1028.05 1028.10 1028.15 1028.18 1028.20 1028.20 1028.18 1028.15 1028.10 1028.05 1028.01
1017.02 1017.63 1018.23 1018.81 1019.38 1019.91 1020.41 1020.90 1021.35 1021.80 1022.22 1022.64 1023.05 1023.46 1023.86 1024.26 1024.64 1025.02 1025.37 1025.70 1026.00 1026.27 1026.50 1026.70 1026.86 1027.00 1027.10 1027.19 1027.28 1027.36 1027.44 1027.52 1027.60 1027.67 1027.73 1027.78 1027.80 1027.79 1027.76 1027.70 1027.62 1027.53 1027.44
1016.32 1016.95 1017.58 1018.19 1018.77 1019.33 1019.85 1020.33 1020.78 1021.21 1021.62 1022.03 1022.43 1022.83 1023.23 1023.64 1024.04 1024.43 1024.81 1025.17 1025.49 1025.77 1026.01 1026.21 1026.37 1026.50 1026.61 1026.70 1026.78 1026.87 1026.96 1027.06 1027.16 1027.25 1027.32 1027.37 1027.39 1027.37 1027.32 1027.23 1027.11 1026.98 1026.84
1015.58 1016.22 1016.87 1017.50 1018.11 1018.68 1019.21 1019.70 1020.15 1020.57 1020.97 1021.35 1021.74 1022.13 1022.54 1022.95 1023.36 1023.77 1024.17 1024.54 1024.89 1025.19 1025.45 1025.67 1025.84 1025.98 1026.10 1026.21 1026.31 1026.41 1026.52 1026.63 1026.74 1026.84 1026.92 1026.97 1026.98 1026.95 1026.87 1026.76 1026.60 1026.43 1026.24
1014.81 1015.45 1016.10 1016.75 1017.37 1017.95 1018.48 1018.97 1019.42 1019.84 1020.23 1020.61 1020.99 1021.38 1021.78 1022.20 1022.62 1023.05 1023.47 1023.87 1024.23 1024.57 1024.85 1025.10 1025.30 1025.47 1025.61 1025.74 1025.87 1025.99 1026.11 1026.23 1026.34 1026.45 1026.53 1026.57 1026.57 1026.53 1026.43 1026.29 1026.10 1025.89 1025.66
1014.03 1014.66 1015.31 1015.94 1016.56 1017.14 1017.68 1018.17 1018.61 1019.03 1019.42 1019.80 1020.18 1020.58 1020.98 1021.41 1021.85 1022.29 1022.73 1023.16 1023.56 1023.92 1024.24 1024.52 1024.76 1024.97 1025.15 1025.31 1025.46 1025.60 1025.73 1025.86 1025.98 1026.08 1026.15 1026.18 1026.17 1026.11 1025.99 1025.82 1025.61 1025.37 1025.10
1013.27 1013.88 1014.51 1015.13 1015.73 1016.29 1016.82 1017.31 1017.75 1018.17 1018.57 1018.96 1019.35 1019.76 1020.18 1020.62 1021.08 1021.54 1022.00 1022.45 1022.89 1023.28 1023.64 1023.96 1024.25 1024.49 1024.71 1024.90 1025.08 1025.24 1025.38 1025.52 1025.63 1025.72 1025.78 1025.80 1025.77 1025.68 1025.55 1025.36 1025.12 1024.85 1024.54
1012.58 1013.17 1013.76 1014.35 1014.92 1015.46 1015.97 1016.45 1016.90 1017.32 1017.73 1018.14 1018.55 1018.98 1019.42 1019.88 1020.36 1020.84 1021.33 1021.80 1022.25 1022.68 1023.08 1023.44 1023.76 1024.04 1024.29 1024.51 1024.71 1024.89 1025.05 1025.18 1025.29 1025.36 1025.40 1025.40 1025.35 1025.24 1025.09 1024.87 1024.61 1024.31 1023.97
1012.00 1012.55 1013.10 1013.65 1014.19 1014.70 1015.20 1015.67 1016.11 1016.55 1016.97 1017.40 1017.84 1018.29 1018.75 1019.24 1019.73 1020.23 1020.73 1021.23 1021.70 1022.15 1022.57 1022.95 1023.30 1023.62 1023.90 1024.14 1024.36 1024.55 1024.71 1024.84 1024.93 1024.99 1025.01 1024.98 1024.91 1024.78 1024.59 1024.35 1024.06 1023.73 1023.35
1011.53 1012.05 1012.57 1013.08 1013.58 1014.07 1014.54 1015.00 1015.45 1015.89 1016.34 1016.79 1017.25 1017.73 1018.22 1018.72 1019.23 1019.75 1020.26 1020.76 1021.24 1021.70 1022.13 1022.53 1022.90 1023.23 1023.52 1023.78 1024.01 1024.21 1024.37 1024.49 1024.57 1024.61 1024.60 1024.54 1024.44 1024.27 1024.06 1023.78 1023.46 1023.09 1022.68
1011.17 1011.66 1012.14 1012.62 1013.10 1013.56 1014.02 1014.47 1014.93 1015.38 1015.85 1016.33 1016.82 1017.32 1017.83 1018.35 1018.87 1019.39 1019.90 1020.40 1020.88 1021.33 1021.76 1022.16 1022.53 1022.87 1023.17 1023.44 1023.67 1023.86 1024.01 1024.12 1024.18 1024.20 1024.16 1024.08 1023.93 1023.73 1023.48 1023.17 1022.80 1022.39 1021.94
1010.86 1011.34 1011.81 1012.26 1012.71 1013.16 1013.61 1014.07 1014.53 1015.01 1015.49 1015.99 1016.51 1017.03 1017.56 1018.09 1018.61 1019.13 1019.64 1020.12 1020.59 1021.03 1021.45 1021.84 1022.20 1022.54 1022.84 1023.10 1023.33 1023.51 1023.65 1023.74 1023.78 1023.77 1023.71 1023.58 1023.40 1023.16 1022.86 1022.50 1022.10 1021.64 1021.14
Thickness
5699 5698 5697 5696 5695 5694 5692 5691 5691 5690 5688 5687 5686 5684 5682 5680 5678 5676 5674 5674 5672 5671 5670 5668 5667 5667 5665 5664 5662 5660 5657 5654 5646 5644 5644 5643 5642 5640 5638 5637 5636 5634 5632
5695 5694 5692 5691 5690 5689 5688 5687 5687 5685 5684 5683 5682 5680 5678 5676 5675 5672 5670 5669 5668 5666 5665 5664 5663 5663 5661 5660 5658 5656 5654 5651 5646 5640 5638 5638 5637 5636 5634 5633 5632 5630 5628
5691 5689 5688 5686 5685 5684 5684 5683 5682 5681 5679 5678 5677 5675 5673 5672 5671 5669 5667 5665 5664 5662 5661 5660 5659 5657 5656 5655 5654 5652 5650 5649 5644 5638 5634 5634 5632 5632 5629 5628 5627 5625 5624
5686 5684 5683 5682 5682 5681 5680 5678 5677 5675 5674 5673 5671 5670 5669 5668 5666 5664 5663 5661 5659 5658 5657 5656 5655 5653 5652 5651 5649 5647 5645 5643 5639 5635 5631 5629 5627 5627 5625 5622 5620 5619 5618
5683 5680 5679 5678 5678 5676 5674 5673 5672 5670 5670 5668 5667 5665 5664 5663 5661 5659 5657 5656 5654 5652 5652 5651 5650 5650 5649 5647 5645 5643 5641 5638 5635 5631 5628 5625 5623 5621 5619 5618 5615 5613 5613
5679 5676 5675 5674 5672 5670 5669 5667 5666 5665 5664 5663 5661 5659 5658 5657 5656 5654 5653 5651 5649 5648 5646 5645 5645 5644 5644 5642 5641 5640 5638 5634 5631 5628 5625 5622 5620 5618 5616 5615 5612 5609 5606
5674 5672 5670 5668 5666 5665 5663 5661 5659 5658 5658 5656 5655 5653 5651 5650 5650 5649 5648 5646 5644 5643 5642 5640 5640 5639 5637 5635 5635 5634 5632 5631 5629 5626 5623 5621 5618 5617 5614 5611 5609 5606 5604
5668 5667 5665 5663 5661 5659 5657 5655 5653 5652 5651 5650 5648 5647 5645 5644 5643 5642 5641 5640 5638 5637 5637 5636 5634 5632 5631 5629 5628 5627 5625 5624 5624 5623 5622 5620 5619 5617 5614 5611 5607 5604 5602
5662 5661 5660 5658 5655 5653 5651 5650 5648 5647 5645 5644 5643 5641 5639 5637 5637 5636 5634 5632 5631 5630 5630 5630 5628 5626 5626 5624 5622 5620 5619 5618 5619 5619 5618 5617 5616 5614 5611 5607 5603 5599 5595
5657 5657 5655 5654 5650 5648 5646 5645 5644 5642 5640 5639 5637 5636 5634 5632 5631 5630 5628 5626 5624 5623 5623 5623 5622 5621 5620 5618 5616 5614 5613 5612 5613 5612 5612 5611 5610 5609 5607 5604 5601 5596 5592
5653 5652 5650 5649 5646 5644 5642 5640 5638 5636 5634 5633 5631 5630 5629 5628 5626 5624 5622 5620 5619 5618 5616 5615 5614 5614 5614 5613 5611 5610 5609 5609 5608 5607 5606 5605 5604 5603 5602 5600 5598 5595 5590
5647 5645 5644 5643 5642 5640 5636 5634 5632 5630 5628 5625 5624 5622 5622 5620 5619 5617 5615 5614 5613 5611 5610 5609 5608 5608 5608 5607 5606 5605 5605 5605 5603 5601 5600 5598 5598 5597 5596 5595 5593 5592 5590
5640 5639 5638 5637 5636 5634 5631 5628 5625 5624 5621 5619 5617 5615 5613 5613 5611 5610 5609 5607 5606 5604 5604 5603 5602 5601 5600 5599 5599 5599 5599 5598 5596 5595 5594 5593 5594 5593 5591 5590 5588 5586 5585
5633 5633 5632 5631 5629 5627 5625 5623 5620 5618 5615 5613 5611 5608 5606 5605 5603 5602 5600 5599 5598 5596 5595 5595 5595 5593 5593 5593 5592 5592 5592 5591 5590 5589 5588 5589 5588 5586 5585 5583 5581 5579 5577
5626 5626 5625 5624 5622 5620 5618 5616 5615 5614 5612 5609 5606 5604 5600 5598 5598 5596 5594 5592 5591 5589 5588 5587 5586 5585 5585 5585 5585 5585 5585 5585 5584 5583 5582 5581 5580 5579 5578 5577 5575 5573 5570
5619 5619 5617 5616 5614 5613 5610 5608 5608 5607 5606 5605 5603 5600 5598 5596 5593 5591 5588 5587 5585 5583 5581 5580 5580 5580 5580 5580 5580 5579 5579 5578 5578 5577 5575 5574 5573 5572 5571 5570 5569 5567 5565
5612 5612 5610 5608 5607 5605 5603 5601 5598 5597 5597 5596 5595 5594 5592 5589 5587 5584 5582 5580 5578 5576 5574 5574 5574 5574 5575 5575 5574 5574 5574 5573 5572 5571 5569 5568 5567 5566 5565 5564 5563 5561 5560
5605 5605 5603 5601 5600 5598 5596 5594 5592 5590 5588 5587 5587 5586 5584 5582 5580 5577 5574 5571 5568 5567 5567 5567 5567 5568 5568 5569 5569 5569 5568 5567 5566 5565 5564 5563 5561 5560 5559 5558 5557 5556 5554
5596 5595 5595 5594 5593 5591 5589 5587 5585 5584 5583 5581 5580 5579 5577 5575 5572 5570 5567 5565 5563 5562 5562 5561 5562 5562 5562 5562 5562 5562 5562 5561 5560 5559 5558 5556 5555 5554 5552 5552 5550 5550 5549
5589 5588 5588 5586 5585 5583 5582 5579 5578 5577 5576 5575 5574 5572 5570 5567 5564 5562 5560 5559 5559 5558 5557 5556 5556 5556 5556 5555 5555 5555 5554 5554 5553 5552 5551 5550 5549 5548 5546 5545 5544 5543 5542
5581 5581 5580 5578 5577 5576 5575 5573 5571 5570 5570 5569 5568 5567 5565 5563 5561 5559 5557 5555 5554 5554 5553 5552 5551 5550 5550 5549 5548 5548 5547 5546 5546 5545 5544 5543 5542 5541 5540 5539 5538 5536 5535
5573 5572 5571 5570 5569 5568 5567 5566 5565 5564 5564 5563 5562 5561 5559 5557 5556 5555 5553 5552 5551 5550 5549 5548 5547 5546 5545 5544 5543 5542 5541 5540 5539 5538 5537 5537 5536 5535 5533 5532 5531 5529 5528
5565 5564 5562 5561 5560 5560 5559 5559 5558 5558 5557 5557 5556 5554 5552 5551 5550 5549 5548 5547 5546 5545 5543 5542 5541 5540 5539 5538 5537 5536 5535 5534 5533 5532 5530 5529 5528 5527 5526 5525 5524 5523 5522
5556 5556 5554 5553 5552 5551 5551 5551 5551 5550 5549 5549 5548 5547 5545 5544 5544 5543 5542 5541 5540 5538 5537 5536 5535 5534 5533 5532 5531 5530 5529 5528 5526 5525 5523 5522 5521 5520 5519 5518 5517 5516 5514
5548 5547 5546 5545 5545 5544 5543 5543 5543 5542 5541 5540 5540 5539 5538 5537 5536 5535 5534 5533 5532 5530 5530 5529 5528 5527 5526 5525 5524 5522 5521 5520 5518 5517 5515 5514 5513 5512 5511 5510 5509 5508 5506
5540 5539 5538 5537 5536 5535 5534 5534 5533 5533 5532 5532 5531 5531 5530 5529 5528 5527 5526 5524 5523 5522 5522 5521 5520 5519 5518 5517 5516 5515 5514 5512 5511 5510 5508 5506 5505 5503 5502 5501 5500 5499 5498